Time,TemperatureF,DewpointF,PressureIn,WindDirection,WindDirectionDegrees,WindSpeedMPH,WindSpeedGustMPH,Humidity,HourlyPrecipIn,Conditions,Clouds,dailyrainin,SoftwareType,DateUTC
2013-03-24 00:00:00,33.6,20.0,29.74,NW,309,6.0,6.0,57,0.00,,,0.00,Wunderground v.1.15,2013-03-24 04:00:00,
2013-03-24 00:02:00,33.6,20.0,29.74,WNW,303,5.0,9.0,57,0.00,,,0.00,Wunderground v.1.15,2013-03-24 04:02:00,
2013-03-24 00:05:00,33.7,20.1,29.74,West,259,7.0,9.0,57,0.00,,,0.00,Wunderground v.1.15,2013-03-24 04:05:00,
2013-03-24 00:06:00,33.7,20.1,29.74,NW,310,3.0,9.0,57,0.00,,,0.00,Wunderground v.1.15,2013-03-24 04:06:00,
2013-03-24 00:12:00,33.7,20.1,29.74,WNW,297,1.0,9.0,57,0.00,,,0.00,Wunderground v.1.15,2013-03-24 04:12:00,
2013-03-24 00:17:00,33.7,20.1,29.74,WNW,285,4.0,11.0,57,0.00,,,0.00,Wunderground v.1.15,2013-03-24 04:17:00,
2013-03-24 00:22:00,33.6,20.0,29.73,WNW,300,5.0,9.0,57,0.00,,,0.00,Wunderground v.1.15,2013-03-24 04:22:00,
2013-03-24 00:28:00,33.5,19.9,29.73,West,275,8.0,9.0,57,0.00,,,0.00,Wunderground v.1.15,2013-03-24 04:28:00,
2013-03-24 00:33:00,33.4,20.2,29.73,WSW,241,5.0,8.0,58,0.00,,,0.00,Wunderground v.1.15,2013-03-24 04:33:00,
2013-03-24 00:39:00,33.4,19.8,29.73,West,261,4.0,8.0,57,0.00,,,0.00,Wunderground v.1.15,2013-03-24 04:39:00,
2013-03-24 00:44:00,33.4,20.2,29.73,West,268,5.0,7.0,58,0.00,,,0.00,Wunderground v.1.15,2013-03-24 04:44:00,
2013-03-24 00:49:00,33.3,20.1,29.73,WNW,286,7.0,8.0,58,0.00,,,0.00,Wunderground v.1.15,2013-03-24 04:49:00,
2013-03-24 00:55:00,33.2,20.0,29.72,WNW,284,6.0,13.0,58,0.00,,,0.00,Wunderground v.1.15,2013-03-24 04:55:00,
2013-03-24 01:00:00,33.2,20.0,29.72,West,263,2.0,9.0,58,0.00,,,0.00,Wunderground v.1.15,2013-03-24 05:00:00,
2013-03-24 01:05:00,33.2,20.0,29.73,West,280,6.0,15.0,58,0.00,,,0.00,Wunderground v.1.15,2013-03-24 05:05:00,
2013-03-24 01:11:00,33.3,20.5,29.73,WNW,287,12.0,12.0,59,0.00,,,0.00,Wunderground v.1.15,2013-03-24 05:11:00,
2013-03-24 01:17:00,33.2,20.4,29.73,West,267,9.0,12.0,59,0.00,,,0.00,Wunderground v.1.15,2013-03-24 05:17:00,
2013-03-24 01:23:00,33.2,20.4,29.73,West,269,7.0,8.0,59,0.00,,,0.00,Wunderground v.1.15,2013-03-24 05:23:00,
2013-03-24 01:28:00,33.2,20.4,29.73,West,276,13.0,13.0,59,0.00,,,0.00,Wunderground v.1.15,2013-03-24 05:28:00,
2013-03-24 01:33:00,33.3,20.5,29.73,West,269,2.0,11.0,59,0.00,,,0.00,Wunderground v.1.15,2013-03-24 05:33:00,
2013-03-24 01:39:00,33.3,20.5,29.73,West,274,6.0,11.0,59,0.00,,,0.00,Wunderground v.1.15,2013-03-24 05:39:00,
2013-03-24 01:44:00,33.3,20.5,29.73,NW,304,8.0,9.0,59,0.00,,,0.00,Wunderground v.1.15,2013-03-24 05:44:00,
2013-03-24 01:50:00,33.2,20.0,29.73,NW,326,13.0,13.0,58,0.00,,,0.00,Wunderground v.1.15,2013-03-24 05:50:00,
2013-03-24 01:56:00,33.1,20.3,29.74,West,259,4.0,13.0,59,0.00,,,0.00,Wunderground v.1.15,2013-03-24 05:56:00,
2013-03-24 02:01:00,33.1,20.3,29.73,WNW,299,4.0,10.0,59,0.00,,,0.00,Wunderground v.1.15,2013-03-24 06:01:00,
2013-03-24 02:06:00,33.1,20.3,29.74,WSW,250,6.0,10.0,59,0.00,,,0.00,Wunderground v.1.15,2013-03-24 06:06:00,
2013-03-24 02:11:00,33.0,20.2,29.74,WNW,295,7.0,12.0,59,0.00,,,0.00,Wunderground v.1.15,2013-03-24 06:11:00,
2013-03-24 02:16:00,33.0,20.2,29.73,WNW,288,11.0,19.0,59,0.00,,,0.00,Wunderground v.1.15,2013-03-24 06:16:00,
2013-03-24 02:21:00,33.0,20.2,29.73,West,265,7.0,13.0,59,0.00,,,0.00,Wunderground v.1.15,2013-03-24 06:21:00,
2013-03-24 02:27:00,33.0,20.2,29.73,West,269,11.0,13.0,59,0.00,,,0.00,Wunderground v.1.15,2013-03-24 06:27:00,
2013-03-24 02:32:00,33.0,20.2,29.73,WNW,288,9.0,10.0,59,0.00,,,0.00,Wunderground v.1.15,2013-03-24 06:32:00,
2013-03-24 02:37:00,33.0,20.2,29.74,West,275,8.0,13.0,59,0.00,,,0.00,Wunderground v.1.15,2013-03-24 06:37:00,
2013-03-24 02:42:00,32.9,20.1,29.74,WSW,251,9.0,14.0,59,0.00,,,0.00,Wunderground v.1.15,2013-03-24 06:42:00,
2013-03-24 02:47:00,32.8,20.0,29.73,NW,311,6.0,14.0,59,0.00,,,0.00,Wunderground v.1.15,2013-03-24 06:47:00,
2013-03-24 02:52:00,32.7,20.3,29.73,WNW,284,5.0,12.0,60,0.00,,,0.00,Wunderground v.1.15,2013-03-24 06:52:00,
2013-03-24 02:57:00,32.6,20.2,29.73,WNW,296,4.0,15.0,60,0.00,,,0.00,Wunderground v.1.15,2013-03-24 06:57:00,
2013-03-24 03:02:00,32.5,20.1,29.73,WNW,298,7.0,10.0,60,0.00,,,0.00,Wunderground v.1.15,2013-03-24 07:02:00,
2013-03-24 03:07:00,32.4,20.0,29.74,WNW,290,10.0,11.0,60,0.00,,,0.00,Wunderground v.1.15,2013-03-24 07:07:00,
2013-03-24 03:12:00,32.4,20.0,29.73,WNW,293,6.0,11.0,60,0.00,,,0.00,Wunderground v.1.15,2013-03-24 07:12:00,
2013-03-24 03:17:00,32.3,20.3,29.73,NNW,331,4.0,13.0,61,0.00,,,0.00,Wunderground v.1.15,2013-03-24 07:17:00,
2013-03-24 03:22:00,32.3,20.3,29.73,WNW,292,6.0,10.0,61,0.00,,,0.00,Wunderground v.1.15,2013-03-24 07:22:00,
2013-03-24 03:27:00,32.2,20.2,29.73,West,269,7.0,10.0,61,0.00,,,0.00,Wunderground v.1.15,2013-03-24 07:27:00,
2013-03-24 03:32:00,32.1,20.2,29.73,WNW,294,3.0,8.0,61,0.00,,,0.00,Wunderground v.1.15,2013-03-24 07:32:00,
2013-03-24 03:37:00,32.0,20.1,29.73,NNW,347,4.0,8.0,61,0.00,,,0.00,Wunderground v.1.15,2013-03-24 07:37:00,
2013-03-24 03:42:00,32.0,20.4,29.73,NNW,329,5.0,8.0,62,0.00,,,0.00,Wunderground v.1.15,2013-03-24 07:42:00,
2013-03-24 03:47:00,31.9,20.3,29.73,WNW,288,6.0,10.0,62,0.00,,,0.00,Wunderground v.1.15,2013-03-24 07:47:00,
2013-03-24 03:52:00,31.8,20.3,29.73,West,261,1.0,11.0,62,0.00,,,0.00,Wunderground v.1.15,2013-03-24 07:52:00,
2013-03-24 03:57:00,31.8,20.6,29.73,NW,317,8.0,11.0,63,0.00,,,0.00,Wunderground v.1.15,2013-03-24 07:57:00,
2013-03-24 04:02:00,31.7,20.2,29.72,NW,306,1.0,8.0,62,0.00,,,0.00,Wunderground v.1.15,2013-03-24 08:02:00,
2013-03-24 04:07:00,31.7,20.5,29.73,West,271,4.0,9.0,63,0.00,,,0.00,Wunderground v.1.15,2013-03-24 08:07:00,
2013-03-24 04:12:00,31.6,20.4,29.73,West,268,0.0,5.0,63,0.00,,,0.00,Wunderground v.1.15,2013-03-24 08:12:00,
2013-03-24 04:17:00,31.6,20.4,29.73,West,260,2.0,5.0,63,0.00,,,0.00,Wunderground v.1.15,2013-03-24 08:17:00,
2013-03-24 04:22:00,31.5,20.3,29.73,West,281,5.0,5.0,63,0.00,,,0.00,Wunderground v.1.15,2013-03-24 08:22:00,
2013-03-24 04:28:00,31.4,20.2,29.73,West,265,2.0,6.0,63,0.00,,,0.00,Wunderground v.1.15,2013-03-24 08:28:00,
2013-03-24 04:33:00,31.4,20.2,29.72,West,274,1.0,5.0,63,0.00,,,0.00,Wunderground v.1.15,2013-03-24 08:33:00,
2013-03-24 04:38:00,31.3,20.2,29.72,West,275,1.0,5.0,63,0.00,,,0.00,Wunderground v.1.15,2013-03-24 08:38:00,
2013-03-24 04:43:00,31.2,20.1,29.72,West,268,4.0,4.0,63,0.00,,,0.00,Wunderground v.1.15,2013-03-24 08:43:00,
2013-03-24 04:48:00,31.0,19.9,29.72,WSW,249,2.0,7.0,63,0.00,,,0.00,Wunderground v.1.15,2013-03-24 08:48:00,
2013-03-24 04:53:00,31.0,20.2,29.73,West,263,3.0,6.0,64,0.00,,,0.00,Wunderground v.1.15,2013-03-24 08:53:00,
2013-03-24 04:58:00,30.9,20.1,29.73,West,269,5.0,9.0,64,0.00,,,0.00,Wunderground v.1.15,2013-03-24 08:58:00,
2013-03-24 05:03:00,30.8,20.0,29.73,West,279,5.0,6.0,64,0.00,,,0.00,Wunderground v.1.15,2013-03-24 09:03:00,
2013-03-24 05:08:00,30.8,20.0,29.72,West,280,4.0,6.0,64,0.00,,,0.00,Wunderground v.1.15,2013-03-24 09:08:00,
2013-03-24 05:13:00,30.7,20.0,29.73,WNW,291,0.0,5.0,64,0.00,,,0.00,Wunderground v.1.15,2013-03-24 09:13:00,
2013-03-24 05:18:00,30.6,19.9,29.73,West,276,1.0,5.0,64,0.00,,,0.00,Wunderground v.1.15,2013-03-24 09:18:00,
2013-03-24 05:23:00,30.5,20.1,29.74,WNW,284,3.0,5.0,65,0.00,,,0.00,Wunderground v.1.15,2013-03-24 09:23:00,
2013-03-24 05:28:00,30.4,20.0,29.74,West,277,2.0,7.0,65,0.00,,,0.00,Wunderground v.1.15,2013-03-24 09:28:00,
2013-03-24 05:33:00,30.4,20.0,29.73,WNW,290,3.0,6.0,65,0.00,,,0.00,Wunderground v.1.15,2013-03-24 09:33:00,
2013-03-24 05:38:00,30.3,19.9,29.73,WNW,286,3.0,6.0,65,0.00,,,0.00,Wunderground v.1.15,2013-03-24 09:38:00,
2013-03-24 05:43:00,30.2,19.8,29.73,WNW,285,1.0,4.0,65,0.00,,,0.00,Wunderground v.1.15,2013-03-24 09:43:00,
2013-03-24 05:48:00,30.1,19.7,29.73,WNW,284,0.0,4.0,65,0.00,,,0.00,Wunderground v.1.15,2013-03-24 09:48:00,
2013-03-24 05:53:00,30.1,19.7,29.73,WNW,285,0.0,2.0,65,0.00,,,0.00,Wunderground v.1.15,2013-03-24 09:53:00,
2013-03-24 05:58:00,29.9,19.6,29.74,WNW,285,0.0,2.0,65,0.00,,,0.00,Wunderground v.1.15,2013-03-24 09:58:00,
2013-03-24 06:03:00,29.7,19.4,29.74,WNW,285,1.0,3.0,65,0.00,,,0.00,Wunderground v.1.15,2013-03-24 10:03:00,
2013-03-24 06:08:00,29.6,19.3,29.74,WNW,284,1.0,3.0,65,0.00,,,0.00,Wunderground v.1.15,2013-03-24 10:08:00,
2013-03-24 06:13:00,29.4,19.1,29.74,WNW,284,2.0,2.0,65,0.00,,,0.00,Wunderground v.1.15,2013-03-24 10:13:00,
2013-03-24 06:18:00,29.3,19.0,29.74,WNW,289,2.0,4.0,65,0.00,,,0.00,Wunderground v.1.15,2013-03-24 10:18:00,
2013-03-24 06:23:00,29.2,19.2,29.75,WNW,287,3.0,5.0,66,0.00,,,0.00,Wunderground v.1.15,2013-03-24 10:23:00,
2013-03-24 06:28:00,29.2,19.2,29.75,WNW,287,0.0,5.0,66,0.00,,,0.00,Wunderground v.1.15,2013-03-24 10:28:00,
2013-03-24 06:33:00,29.2,19.6,29.76,WSW,245,2.0,7.0,67,0.00,,,0.00,Wunderground v.1.15,2013-03-24 10:33:00,
2013-03-24 06:38:00,29.1,19.2,29.77,WSW,248,2.0,7.0,66,0.00,,,0.00,Wunderground v.1.15,2013-03-24 10:38:00,
2013-03-24 06:43:00,29.1,19.2,29.77,WSW,248,2.0,3.0,66,0.00,,,0.00,Wunderground v.1.15,2013-03-24 10:43:00,
2013-03-24 06:48:00,29.0,19.4,29.77,WSW,250,4.0,4.0,67,0.00,,,0.00,Wunderground v.1.15,2013-03-24 10:48:00,
2013-03-24 06:53:00,29.0,19.4,29.77,WSW,253,3.0,5.0,67,0.00,,,0.00,Wunderground v.1.15,2013-03-24 10:53:00,
2013-03-24 06:58:00,28.9,19.3,29.77,West,275,3.0,5.0,67,0.00,,,0.00,Wunderground v.1.15,2013-03-24 10:58:00,
2013-03-24 07:03:00,28.9,19.7,29.77,West,265,2.0,5.0,68,0.00,,,0.00,Wunderground v.1.15,2013-03-24 11:03:00,
2013-03-24 07:08:00,29.0,19.8,29.77,West,277,1.0,5.0,68,0.00,,,0.00,Wunderground v.1.15,2013-03-24 11:08:00,
2013-03-24 07:13:00,29.0,19.8,29.78,West,277,3.0,4.0,68,0.00,,,0.00,Wunderground v.1.15,2013-03-24 11:13:00,
2013-03-24 07:18:00,29.1,20.2,29.77,West,276,1.0,4.0,69,0.00,,,0.00,Wunderground v.1.15,2013-03-24 11:18:00,
2013-03-24 07:23:00,29.3,20.4,29.77,West,277,2.0,4.0,69,0.00,,,0.00,Wunderground v.1.15,2013-03-24 11:23:00,
2013-03-24 07:28:00,29.5,20.6,29.77,WNW,286,2.0,4.0,69,0.00,,,0.00,Wunderground v.1.15,2013-03-24 11:28:00,
2013-03-24 07:33:00,29.7,20.8,29.77,WNW,290,1.0,5.0,69,0.00,,,0.00,Wunderground v.1.15,2013-03-24 11:33:00,
2013-03-24 07:38:00,30.0,21.1,29.77,NW,304,4.0,5.0,69,0.00,,,0.00,Wunderground v.1.15,2013-03-24 11:38:00,
2013-03-24 07:43:00,30.4,21.1,29.77,NW,321,5.0,7.0,68,0.00,,,0.00,Wunderground v.1.15,2013-03-24 11:43:00,
2013-03-24 07:48:00,30.9,21.6,29.78,NW,311,3.0,7.0,68,0.00,,,0.00,Wunderground v.1.15,2013-03-24 11:48:00,
2013-03-24 07:53:00,31.4,21.7,29.78,NW,309,3.0,10.0,67,0.00,,,0.00,Wunderground v.1.15,2013-03-24 11:53:00,
2013-03-24 07:58:00,31.8,21.7,29.77,NW,325,5.0,10.0,66,0.00,,,0.00,Wunderground v.1.15,2013-03-24 11:58:00,
2013-03-24 08:03:00,32.4,21.9,29.77,WNW,292,4.0,10.0,65,0.00,,,0.00,Wunderground v.1.15,2013-03-24 12:03:00,
2013-03-24 08:08:00,33.0,22.1,29.77,West,279,0.0,10.0,64,0.00,,,0.00,Wunderground v.1.15,2013-03-24 12:08:00,
2013-03-24 08:13:00,33.5,22.2,29.78,NW,313,3.0,10.0,63,0.00,,,0.00,Wunderground v.1.15,2013-03-24 12:13:00,
2013-03-24 08:18:00,33.9,22.6,29.77,WSW,253,4.0,10.0,63,0.00,,,0.00,Wunderground v.1.15,2013-03-24 12:18:00,
2013-03-24 08:23:00,34.3,22.6,29.77,NNW,329,2.0,10.0,62,0.00,,,0.00,Wunderground v.1.15,2013-03-24 12:23:00,
2013-03-24 08:28:00,34.4,22.7,29.77,West,279,2.0,10.0,62,0.00,,,0.00,Wunderground v.1.15,2013-03-24 12:28:00,
2013-03-24 08:33:00,34.6,22.5,29.78,NW,309,7.0,9.0,61,0.00,,,0.00,Wunderground v.1.15,2013-03-24 12:33:00,
2013-03-24 08:38:00,35.0,22.9,29.77,NNW,329,6.0,11.0,61,0.00,,,0.00,Wunderground v.1.15,2013-03-24 12:38:00,
2013-03-24 08:43:00,35.3,22.8,29.76,NNW,327,5.0,9.0,60,0.00,,,0.00,Wunderground v.1.15,2013-03-24 12:43:00,
2013-03-24 08:48:00,35.6,23.1,29.76,North,355,8.0,18.0,60,0.00,,,0.00,Wunderground v.1.15,2013-03-24 12:48:00,
2013-03-24 08:53:00,36.0,22.6,29.76,North,355,14.0,15.0,58,0.00,,,0.00,Wunderground v.1.15,2013-03-24 12:53:00,
2013-03-24 08:58:00,36.3,23.3,29.77,NNW,327,14.0,18.0,59,0.00,,,0.00,Wunderground v.1.15,2013-03-24 12:58:00,
2013-03-24 09:03:00,36.6,22.8,29.76,North,355,11.0,17.0,57,0.00,,,0.00,Wunderground v.1.15,2013-03-24 13:03:00,
2013-03-24 09:08:00,36.8,23.4,29.76,North,349,11.0,17.0,58,0.00,,,0.00,Wunderground v.1.15,2013-03-24 13:08:00,
2013-03-24 09:13:00,37.1,23.7,29.76,NNW,338,7.0,21.0,58,0.00,,,0.00,Wunderground v.1.15,2013-03-24 13:13:00,
2013-03-24 09:18:00,37.3,23.4,29.76,North,355,11.0,21.0,57,0.00,,,0.00,Wunderground v.1.15,2013-03-24 13:18:00,
2013-03-24 09:23:00,37.5,23.6,29.76,NW,317,9.0,15.0,57,0.00,,,0.00,Wunderground v.1.15,2013-03-24 13:23:00,
2013-03-24 09:28:00,37.7,23.4,29.76,NNW,348,18.0,20.0,56,0.00,,,0.00,Wunderground v.1.15,2013-03-24 13:28:00,
2013-03-24 09:34:00,37.9,23.6,29.77,NNW,346,9.0,18.0,56,0.00,,,0.00,Wunderground v.1.15,2013-03-24 13:34:00,
2013-03-24 09:39:00,38.0,24.1,29.76,NW,315,11.0,21.0,57,0.00,,,0.00,Wunderground v.1.15,2013-03-24 13:39:00,
2013-03-24 09:44:00,38.3,24.0,29.77,NNW,337,13.0,15.0,56,0.00,,,0.00,Wunderground v.1.15,2013-03-24 13:44:00,
2013-03-24 09:49:00,38.4,23.6,29.78,NNW,342,2.0,17.0,55,0.00,,,0.00,Wunderground v.1.15,2013-03-24 13:49:00,
2013-03-24 09:54:00,38.6,23.8,29.78,NNW,337,5.0,12.0,55,0.00,,,0.00,Wunderground v.1.15,2013-03-24 13:54:00,
2013-03-24 09:59:00,38.9,23.7,29.78,NNW,344,9.0,12.0,54,0.00,,,0.00,Wunderground v.1.15,2013-03-24 13:59:00,
2013-03-24 10:04:00,39.1,23.8,29.77,NNW,331,10.0,15.0,54,0.00,,,0.00,Wunderground v.1.15,2013-03-24 14:04:00,
2013-03-24 10:09:00,39.3,24.5,29.77,NNW,327,9.0,15.0,55,0.00,,,0.00,Wunderground v.1.15,2013-03-24 14:09:00,
2013-03-24 10:14:00,39.5,24.2,29.77,NNW,338,10.0,15.0,54,0.00,,,0.00,Wunderground v.1.15,2013-03-24 14:14:00,
2013-03-24 10:19:00,39.7,24.0,29.78,NW,317,5.0,15.0,53,0.00,,,0.00,Wunderground v.1.15,2013-03-24 14:19:00,
2013-03-24 10:24:00,39.9,24.1,29.77,NNW,333,8.0,16.0,53,0.00,,,0.00,Wunderground v.1.15,2013-03-24 14:24:00,
2013-03-24 10:29:00,40.0,23.8,29.77,NNW,348,6.0,16.0,52,0.00,,,0.00,Wunderground v.1.15,2013-03-24 14:29:00,
2013-03-24 10:34:00,40.1,23.9,29.77,NW,322,2.0,13.0,52,0.00,,,0.00,Wunderground v.1.15,2013-03-24 14:34:00,
2013-03-24 10:39:00,40.3,24.1,29.77,NNW,348,10.0,14.0,52,0.00,,,0.00,Wunderground v.1.15,2013-03-24 14:39:00,
2013-03-24 10:44:00,40.5,23.8,29.77,NNW,333,12.0,13.0,51,0.00,,,0.00,Wunderground v.1.15,2013-03-24 14:44:00,
2013-03-24 10:49:00,40.7,24.0,29.77,NW,313,5.0,13.0,51,0.00,,,0.00,Wunderground v.1.15,2013-03-24 14:49:00,
2013-03-24 10:54:00,40.8,24.1,29.77,NNW,329,6.0,12.0,51,0.00,,,0.00,Wunderground v.1.15,2013-03-24 14:54:00,
2013-03-24 10:59:00,41.1,24.3,29.77,WNW,301,12.0,13.0,51,0.00,,,0.00,Wunderground v.1.15,2013-03-24 14:59:00,
2013-03-24 11:04:00,41.2,23.5,29.77,NNW,332,5.0,13.0,49,0.00,,,0.00,Wunderground v.1.15,2013-03-24 15:04:00,
2013-03-24 11:09:00,41.2,23.9,29.77,NW,326,9.0,13.0,50,0.00,,,0.00,Wunderground v.1.15,2013-03-24 15:09:00,
2013-03-24 11:14:00,41.4,24.6,29.77,NNW,331,17.0,17.0,51,0.00,,,0.00,Wunderground v.1.15,2013-03-24 15:14:00,
2013-03-24 11:19:00,41.6,24.3,29.76,NNW,337,7.0,17.0,50,0.00,,,0.00,Wunderground v.1.15,2013-03-24 15:19:00,
2013-03-24 11:24:00,41.9,24.6,29.77,North,5,7.0,13.0,50,0.00,,,0.00,Wunderground v.1.15,2013-03-24 15:24:00,
2013-03-24 11:29:00,42.1,24.3,29.76,NNW,333,11.0,13.0,49,0.00,,,0.00,Wunderground v.1.15,2013-03-24 15:29:00,
2013-03-24 11:34:00,42.1,24.3,29.77,North,355,5.0,16.0,49,0.00,,,0.00,Wunderground v.1.15,2013-03-24 15:34:00,
2013-03-24 11:39:00,42.0,24.7,29.77,West,279,8.0,16.0,50,0.00,,,0.00,Wunderground v.1.15,2013-03-24 15:39:00,
2013-03-24 11:44:00,42.2,24.4,29.77,WNW,299,10.0,13.0,49,0.00,,,0.00,Wunderground v.1.15,2013-03-24 15:44:00,
2013-03-24 11:49:00,42.4,24.6,29.76,NW,321,11.0,17.0,49,0.00,,,0.00,Wunderground v.1.15,2013-03-24 15:49:00,
2013-03-24 11:54:00,42.5,24.7,29.77,NW,319,6.0,14.0,49,0.00,,,0.00,Wunderground v.1.15,2013-03-24 15:54:00,
2013-03-24 11:59:00,42.5,24.2,29.76,North,355,8.0,14.0,48,0.00,,,0.00,Wunderground v.1.15,2013-03-24 15:59:00,
2013-03-24 12:04:00,42.7,25.3,29.77,NW,321,12.0,15.0,50,0.00,,,0.00,Wunderground v.1.15,2013-03-24 16:04:00,
2013-03-24 12:09:00,42.8,24.9,29.77,North,360,3.0,15.0,49,0.00,,,0.00,Wunderground v.1.15,2013-03-24 16:09:00,
2013-03-24 12:15:00,43.0,24.6,29.76,NNW,341,7.0,16.0,48,0.00,,,0.00,Wunderground v.1.15,2013-03-24 16:15:00,
2013-03-24 12:20:00,42.7,24.4,29.77,NW,314,7.0,9.0,48,0.00,,,0.00,Wunderground v.1.15,2013-03-24 16:20:00,
2013-03-24 12:25:00,42.7,24.8,29.76,NW,313,10.0,16.0,49,0.00,,,0.00,Wunderground v.1.15,2013-03-24 16:25:00,
2013-03-24 12:30:00,42.5,23.7,29.77,NNW,348,10.0,10.0,47,0.00,,,0.00,Wunderground v.1.15,2013-03-24 16:30:00,
2013-03-24 12:35:00,42.6,24.3,29.76,NW,321,6.0,16.0,48,0.00,,,0.00,Wunderground v.1.15,2013-03-24 16:35:00,
2013-03-24 12:40:00,42.8,24.4,29.76,NW,304,12.0,13.0,48,0.00,,,0.00,Wunderground v.1.15,2013-03-24 16:40:00,
2013-03-24 12:45:00,42.8,23.9,29.76,NW,304,4.0,15.0,47,0.00,,,0.00,Wunderground v.1.15,2013-03-24 16:45:00,
2013-03-24 12:50:00,42.9,25.0,29.76,West,271,8.0,9.0,49,0.00,,,0.00,Wunderground v.1.15,2013-03-24 16:50:00,
2013-03-24 12:55:00,43.3,24.4,29.77,WNW,294,4.0,12.0,47,0.00,,,0.00,Wunderground v.1.15,2013-03-24 16:55:00,
2013-03-24 13:00:00,43.4,24.0,29.76,NW,318,2.0,10.0,46,0.00,,,0.00,Wunderground v.1.15,2013-03-24 17:00:00,
2013-03-24 13:05:00,43.6,25.2,29.76,West,278,3.0,10.0,48,0.00,,,0.00,Wunderground v.1.15,2013-03-24 17:05:00,
2013-03-24 13:10:00,43.9,24.4,29.76,NNW,337,7.0,10.0,46,0.00,,,0.00,Wunderground v.1.15,2013-03-24 17:10:00,
2013-03-24 13:15:00,43.8,24.3,29.76,NNE,31,4.0,12.0,46,0.00,,,0.00,Wunderground v.1.15,2013-03-24 17:15:00,
2013-03-24 13:20:00,43.7,24.8,29.75,North,11,9.0,12.0,47,0.00,,,0.00,Wunderground v.1.15,2013-03-24 17:20:00,
2013-03-24 13:25:00,43.8,24.3,29.74,NW,317,5.0,12.0,46,0.00,,,0.00,Wunderground v.1.15,2013-03-24 17:25:00,
2013-03-24 13:30:00,43.8,23.8,29.74,NNW,330,7.0,12.0,45,0.00,,,0.00,Wunderground v.1.15,2013-03-24 17:30:00,
2013-03-24 13:35:00,43.7,24.2,29.74,NW,304,4.0,14.0,46,0.00,,,0.00,Wunderground v.1.15,2013-03-24 17:35:00,
2013-03-24 13:40:00,43.7,25.3,29.74,NW,316,11.0,11.0,48,0.00,,,0.01,Wunderground v.1.15,2013-03-24 17:40:00,
2013-03-24 13:45:00,43.6,24.2,29.74,NW,322,8.0,14.0,46,0.00,,,0.01,Wunderground v.1.15,2013-03-24 17:45:00,
2013-03-24 13:50:00,43.5,24.6,29.74,NNW,336,5.0,11.0,47,0.00,,,0.01,Wunderground v.1.15,2013-03-24 17:50:00,
2013-03-24 13:55:00,43.6,25.7,29.74,West,271,8.0,11.0,49,0.00,,,0.01,Wunderground v.1.15,2013-03-24 17:55:00,
2013-03-24 14:00:00,44.2,25.2,29.74,NNW,346,7.0,10.0,47,0.00,,,0.01,Wunderground v.1.15,2013-03-24 18:00:00,
2013-03-24 14:05:00,44.4,25.4,29.74,NW,323,8.0,14.0,47,0.00,,,0.01,Wunderground v.1.15,2013-03-24 18:05:00,
2013-03-24 14:10:00,44.3,24.3,29.74,North,355,9.0,13.0,45,0.00,,,0.01,Wunderground v.1.15,2013-03-24 18:10:00,
2013-03-24 14:15:00,44.1,24.1,29.74,NNW,342,5.0,15.0,45,0.00,,,0.01,Wunderground v.1.15,2013-03-24 18:15:00,
2013-03-24 14:20:00,44.1,25.1,29.74,NNE,17,4.0,8.0,47,0.00,,,0.01,Wunderground v.1.15,2013-03-24 18:20:00,
2013-03-24 14:25:00,44.3,24.3,29.74,NW,313,11.0,11.0,45,0.00,,,0.01,Wunderground v.1.15,2013-03-24 18:25:00,
2013-03-24 14:30:00,44.4,24.4,29.74,WNW,297,8.0,9.0,45,0.00,,,0.01,Wunderground v.1.15,2013-03-24 18:30:00,
2013-03-24 14:35:00,44.4,25.4,29.73,NNW,341,10.0,12.0,47,0.00,,,0.01,Wunderground v.1.15,2013-03-24 18:35:00,
2013-03-24 14:40:00,44.5,23.9,29.73,WNW,288,8.0,10.0,44,0.00,,,0.01,Wunderground v.1.15,2013-03-24 18:40:00,
2013-03-24 14:45:00,44.7,25.2,29.73,NNW,327,9.0,15.0,46,0.00,,,0.01,Wunderground v.1.15,2013-03-24 18:45:00,
2013-03-24 14:50:00,44.6,24.5,29.73,NNW,336,6.0,12.0,45,0.00,,,0.01,Wunderground v.1.15,2013-03-24 18:50:00,
2013-03-24 14:55:00,44.6,24.5,29.72,North,360,9.0,18.0,45,0.00,,,0.01,Wunderground v.1.15,2013-03-24 18:55:00,
2013-03-24 15:00:00,44.6,24.0,29.72,North,9,8.0,8.0,44,0.00,,,0.01,Wunderground v.1.15,2013-03-24 19:00:00,
2013-03-24 15:05:00,44.7,24.6,29.72,North,5,6.0,11.0,45,0.00,,,0.01,Wunderground v.1.15,2013-03-24 19:05:00,
2013-03-24 15:11:00,44.7,24.6,29.71,NNE,21,6.0,10.0,45,0.00,,,0.01,Wunderground v.1.15,2013-03-24 19:11:00,
2013-03-24 15:16:00,44.7,25.2,29.71,NW,322,4.0,12.0,46,0.00,,,0.01,Wunderground v.1.15,2013-03-24 19:16:00,
2013-03-24 15:21:00,44.8,24.7,29.71,NNW,327,12.0,13.0,45,0.00,,,0.01,Wunderground v.1.15,2013-03-24 19:21:00,
2013-03-24 15:26:00,44.9,24.8,29.71,West,275,7.0,13.0,45,0.00,,,0.01,Wunderground v.1.15,2013-03-24 19:26:00,
2013-03-24 15:31:00,45.0,25.4,29.71,NNW,329,12.0,12.0,46,0.00,,,0.01,Wunderground v.1.15,2013-03-24 19:31:00,
2013-03-24 15:37:00,45.1,24.5,29.71,NW,305,4.0,14.0,44,0.00,,,0.01,Wunderground v.1.15,2013-03-24 19:37:00,
2013-03-24 15:42:00,45.0,24.4,29.71,NNW,333,7.0,10.0,44,0.00,,,0.01,Wunderground v.1.15,2013-03-24 19:42:00,
2013-03-24 15:47:00,45.0,24.4,29.70,NW,322,9.0,10.0,44,0.00,,,0.01,Wunderground v.1.15,2013-03-24 19:47:00,
2013-03-24 15:52:00,45.0,24.4,29.70,NW,317,6.0,7.0,44,0.00,,,0.01,Wunderground v.1.15,2013-03-24 19:52:00,
2013-03-24 15:57:00,45.0,24.9,29.70,NNW,327,4.0,13.0,45,0.00,,,0.01,Wunderground v.1.15,2013-03-24 19:57:00,
2013-03-24 16:02:00,44.9,24.3,29.70,NNE,13,11.0,11.0,44,0.00,,,0.01,Wunderground v.1.15,2013-03-24 20:02:00,
2013-03-24 16:07:00,44.9,24.3,29.70,NW,326,6.0,12.0,44,0.00,,,0.01,Wunderground v.1.15,2013-03-24 20:07:00,
2013-03-24 16:12:00,44.7,24.1,29.70,NE,45,6.0,9.0,44,0.00,,,0.01,Wunderground v.1.15,2013-03-24 20:12:00,
2013-03-24 16:17:00,45.0,24.4,29.70,North,351,9.0,14.0,44,0.00,,,0.01,Wunderground v.1.15,2013-03-24 20:17:00,
2013-03-24 16:22:00,44.9,24.8,29.70,North,360,7.0,11.0,45,0.00,,,0.01,Wunderground v.1.15,2013-03-24 20:22:00,
2013-03-24 16:27:00,44.7,24.1,29.70,NE,48,6.0,11.0,44,0.00,,,0.01,Wunderground v.1.15,2013-03-24 20:27:00,
2013-03-24 16:32:00,44.7,24.6,29.70,North,5,8.0,11.0,45,0.00,,,0.01,Wunderground v.1.15,2013-03-24 20:32:00,
2013-03-24 16:37:00,44.8,24.7,29.70,NNW,334,6.0,11.0,45,0.00,,,0.01,Wunderground v.1.15,2013-03-24 20:37:00,
2013-03-24 16:42:00,44.8,24.7,29.70,NNW,331,4.0,10.0,45,0.00,,,0.01,Wunderground v.1.15,2013-03-24 20:42:00,
2013-03-24 16:47:00,44.5,24.5,29.70,NW,313,5.0,10.0,45,0.00,,,0.01,Wunderground v.1.15,2013-03-24 20:47:00,
2013-03-24 16:52:00,44.4,23.8,29.69,NNE,17,4.0,8.0,44,0.00,,,0.01,Wunderground v.1.15,2013-03-24 20:52:00,
2013-03-24 16:57:00,44.4,24.4,29.70,NE,42,4.0,10.0,45,0.00,,,0.01,Wunderground v.1.15,2013-03-24 20:57:00,
2013-03-24 17:02:00,44.5,23.9,29.70,NE,41,4.0,8.0,44,0.00,,,0.01,Wunderground v.1.15,2013-03-24 21:02:00,
2013-03-24 17:07:00,44.7,24.1,29.70,NNW,327,1.0,11.0,44,0.00,,,0.01,Wunderground v.1.15,2013-03-24 21:07:00,
2013-03-24 17:12:00,44.7,24.1,29.70,NNW,336,4.0,6.0,44,0.00,,,0.01,Wunderground v.1.15,2013-03-24 21:12:00,
2013-03-24 17:17:00,44.6,24.0,29.70,NNW,331,3.0,10.0,44,0.00,,,0.01,Wunderground v.1.15,2013-03-24 21:17:00,
2013-03-24 17:22:00,44.4,24.4,29.70,North,11,4.0,6.0,45,0.00,,,0.01,Wunderground v.1.15,2013-03-24 21:22:00,
2013-03-24 17:28:00,44.4,24.9,29.70,NE,41,2.0,6.0,46,0.00,,,0.01,Wunderground v.1.15,2013-03-24 21:28:00,
2013-03-24 17:33:00,44.5,23.9,29.70,NE,41,6.0,6.0,44,0.00,,,0.01,Wunderground v.1.15,2013-03-24 21:33:00,
2013-03-24 17:56:00,44.5,23.9,29.71,NNW,336,3.0,4.0,44,0.00,,,0.01,Wunderground v.1.15,2013-03-24 21:56:00,
2013-03-24 18:01:00,44.5,23.9,29.71,NE,52,1.0,4.0,44,0.00,,,0.01,Wunderground v.1.15,2013-03-24 22:01:00,
2013-03-24 18:15:00,44.6,28.0,29.71,ESE,108,4.0,4.0,52,0.00,,,0.01,Wunderground v.1.15,2013-03-24 22:15:00,
2013-03-24 18:20:00,44.5,28.4,29.71,ESE,110,5.0,7.0,53,0.00,,,0.01,Wunderground v.1.15,2013-03-24 22:20:00,
2013-03-24 18:25:00,44.3,28.2,29.72,ESE,110,4.0,8.0,53,0.00,,,0.01,Wunderground v.1.15,2013-03-24 22:25:00,
2013-03-24 18:30:00,43.9,27.9,29.71,East,92,3.0,9.0,53,0.00,,,0.01,Wunderground v.1.15,2013-03-24 22:30:00,
2013-03-24 18:36:00,43.5,28.4,29.72,East,94,5.0,6.0,55,0.00,,,0.01,Wunderground v.1.15,2013-03-24 22:36:00,
2013-03-24 18:41:00,43.1,28.5,29.72,ESE,122,7.0,9.0,56,0.00,,,0.01,Wunderground v.1.15,2013-03-24 22:41:00,
2013-03-24 18:46:00,42.8,28.2,29.72,East,95,5.0,9.0,56,0.00,,,0.01,Wunderground v.1.15,2013-03-24 22:46:00,
2013-03-24 18:51:00,42.6,28.4,29.72,East,98,6.0,9.0,57,0.00,,,0.01,Wunderground v.1.15,2013-03-24 22:51:00,
2013-03-24 18:56:00,42.3,28.1,29.72,East,101,6.0,7.0,57,0.00,,,0.01,Wunderground v.1.15,2013-03-24 22:56:00,
2013-03-24 19:01:00,42.0,27.9,29.72,ESE,119,3.0,5.0,57,0.00,,,0.01,Wunderground v.1.15,2013-03-24 23:01:00,
2013-03-24 19:06:00,41.8,27.7,29.72,ESE,121,0.0,5.0,57,0.00,,,0.01,Wunderground v.1.15,2013-03-24 23:06:00,
2013-03-24 19:11:00,41.7,28.0,29.72,ESE,120,2.0,4.0,58,0.00,,,0.01,Wunderground v.1.15,2013-03-24 23:11:00,
2013-03-24 19:16:00,41.6,27.9,29.72,ESE,119,1.0,5.0,58,0.00,,,0.01,Wunderground v.1.15,2013-03-24 23:16:00,
2013-03-24 19:21:00,41.4,27.7,29.72,ESE,118,0.0,2.0,58,0.00,,,0.01,Wunderground v.1.15,2013-03-24 23:21:00,
2013-03-24 19:26:00,41.3,27.6,29.72,ESE,118,0.0,2.0,58,0.00,,,0.01,Wunderground v.1.15,2013-03-24 23:26:00,
2013-03-24 19:31:00,41.1,27.0,29.72,ESE,119,0.0,0.0,57,0.00,,,0.01,Wunderground v.1.15,2013-03-24 23:31:00,
2013-03-24 19:36:00,40.7,26.6,29.72,ESE,118,0.0,0.0,57,0.00,,,0.01,Wunderground v.1.15,2013-03-24 23:36:00,
2013-03-24 19:41:00,40.5,26.4,29.72,ESE,118,0.0,0.0,57,0.00,,,0.01,Wunderground v.1.15,2013-03-24 23:41:00,
2013-03-24 19:46:00,40.2,26.6,29.72,ESE,118,0.0,0.0,58,0.00,,,0.01,Wunderground v.1.15,2013-03-24 23:46:00,
2013-03-24 19:51:00,39.9,26.3,29.72,ESE,118,0.0,0.0,58,0.00,,,0.01,Wunderground v.1.15,2013-03-24 23:51:00,
2013-03-24 19:56:00,39.6,26.4,29.72,ESE,119,0.0,0.0,59,0.00,,,0.01,Wunderground v.1.15,2013-03-24 23:56:00,
2013-03-24 20:02:00,39.4,26.2,29.73,ESE,118,2.0,2.0,59,0.00,,,0.01,Wunderground v.1.15,2013-03-25 00:02:00,
2013-03-24 20:07:00,39.2,26.5,29.72,ESE,118,2.0,3.0,60,0.00,,,0.01,Wunderground v.1.15,2013-03-25 00:07:00,
2013-03-24 20:12:00,38.9,26.2,29.72,ESE,118,1.0,3.0,60,0.00,,,0.01,Wunderground v.1.15,2013-03-25 00:12:00,
2013-03-24 20:17:00,38.6,26.3,29.72,ESE,118,1.0,3.0,61,0.00,,,0.01,Wunderground v.1.15,2013-03-25 00:17:00,
2013-03-24 20:22:00,38.4,26.5,29.73,East,79,3.0,6.0,62,0.00,,,0.01,Wunderground v.1.15,2013-03-25 00:22:00,
2013-03-24 20:27:00,38.3,26.8,29.73,ENE,78,4.0,7.0,63,0.00,,,0.01,Wunderground v.1.15,2013-03-25 00:27:00,
2013-03-24 20:32:00,38.3,27.2,29.73,East,92,6.0,9.0,64,0.00,,,0.01,Wunderground v.1.15,2013-03-25 00:32:00,
2013-03-24 20:37:00,38.4,28.0,29.73,East,98,6.0,9.0,66,0.00,,,0.01,Wunderground v.1.15,2013-03-25 00:37:00,
2013-03-24 20:42:00,38.4,28.8,29.73,ESE,118,1.0,6.0,68,0.00,,,0.01,Wunderground v.1.15,2013-03-25 00:42:00,
2013-03-24 20:47:00,38.5,28.9,29.73,ESE,109,4.0,6.0,68,0.00,,,0.01,Wunderground v.1.15,2013-03-25 00:47:00,
2013-03-24 20:52:00,38.5,29.2,29.74,SE,132,4.0,7.0,69,0.00,,,0.01,Wunderground v.1.15,2013-03-25 00:52:00,
2013-03-24 20:57:00,38.5,29.2,29.74,ESE,105,4.0,7.0,69,0.00,,,0.01,Wunderground v.1.15,2013-03-25 00:57:00,
2013-03-24 21:02:00,38.4,29.1,29.74,ESE,119,3.0,7.0,69,0.00,,,0.01,Wunderground v.1.15,2013-03-25 01:02:00,
2013-03-24 21:07:00,38.4,29.1,29.74,ESE,123,4.0,7.0,69,0.00,,,0.01,Wunderground v.1.15,2013-03-25 01:07:00,
2013-03-24 21:12:00,38.3,29.4,29.75,ESE,115,5.0,5.0,70,0.00,,,0.01,Wunderground v.1.15,2013-03-25 01:12:00,
2013-03-24 21:17:00,38.3,29.4,29.75,ESE,116,7.0,7.0,70,0.00,,,0.01,Wunderground v.1.15,2013-03-25 01:17:00,
2013-03-24 21:22:00,38.2,29.3,29.75,SE,131,3.0,4.0,70,0.00,,,0.01,Wunderground v.1.15,2013-03-25 01:22:00,
2013-03-24 21:27:00,38.2,29.3,29.76,SSE,159,5.0,5.0,70,0.00,,,0.01,Wunderground v.1.15,2013-03-25 01:27:00,
2013-03-24 21:32:00,38.2,28.9,29.76,SSE,150,0.0,3.0,69,0.00,,,0.01,Wunderground v.1.15,2013-03-25 01:32:00,
2013-03-24 21:38:00,38.1,28.8,29.76,SSE,151,0.0,3.0,69,0.00,,,0.01,Wunderground v.1.15,2013-03-25 01:38:00,
2013-03-24 21:43:00,38.0,28.4,29.76,SSE,152,1.0,2.0,68,0.00,,,0.01,Wunderground v.1.15,2013-03-25 01:43:00,
2013-03-24 21:48:00,37.8,28.5,29.75,SSE,150,0.0,3.0,69,0.00,,,0.01,Wunderground v.1.15,2013-03-25 01:48:00,
2013-03-24 21:53:00,37.7,28.4,29.76,SSE,151,0.0,0.0,69,0.00,,,0.01,Wunderground v.1.15,2013-03-25 01:53:00,
2013-03-24 21:58:00,37.6,28.3,29.76,SSE,151,0.0,0.0,69,0.00,,,0.01,Wunderground v.1.15,2013-03-25 01:58:00,
2013-03-24 22:03:00,37.5,28.2,29.76,SSE,150,0.0,2.0,69,0.00,,,0.01,Wunderground v.1.15,2013-03-25 02:03:00,
2013-03-24 22:08:00,37.4,28.2,29.76,SSE,151,0.0,2.0,69,0.00,,,0.01,Wunderground v.1.15,2013-03-25 02:08:00,
2013-03-24 22:13:00,37.4,28.2,29.76,SSE,151,0.0,0.0,69,0.00,,,0.01,Wunderground v.1.15,2013-03-25 02:13:00,
2013-03-24 22:18:00,37.4,27.8,29.75,SSE,150,0.0,0.0,68,0.00,,,0.01,Wunderground v.1.15,2013-03-25 02:18:00,
2013-03-24 22:23:00,37.4,27.8,29.75,SSE,151,0.0,0.0,68,0.00,,,0.01,Wunderground v.1.15,2013-03-25 02:23:00,
2013-03-24 22:28:00,37.4,27.8,29.76,SSE,152,0.0,0.0,68,0.00,,,0.01,Wunderground v.1.15,2013-03-25 02:28:00,
2013-03-24 22:33:00,37.3,27.7,29.76,SSE,150,0.0,0.0,68,0.00,,,0.01,Wunderground v.1.15,2013-03-25 02:33:00,
2013-03-24 22:38:00,37.3,27.7,29.75,SSE,151,0.0,0.0,68,0.00,,,0.01,Wunderground v.1.15,2013-03-25 02:38:00,
2013-03-24 22:43:00,37.3,27.7,29.75,SSE,151,0.0,0.0,68,0.00,,,0.01,Wunderground v.1.15,2013-03-25 02:43:00,
2013-03-24 22:48:00,37.3,27.7,29.75,SSE,152,0.0,0.0,68,0.00,,,0.01,Wunderground v.1.15,2013-03-25 02:48:00,
2013-03-24 22:53:00,37.2,27.6,29.74,SSE,151,0.0,0.0,68,0.00,,,0.01,Wunderground v.1.15,2013-03-25 02:53:00,
2013-03-24 22:58:00,37.1,27.9,29.75,SSE,152,0.0,0.0,69,0.00,,,0.01,Wunderground v.1.15,2013-03-25 02:58:00,
2013-03-24 23:03:00,37.1,27.9,29.74,SSE,151,0.0,0.0,69,0.00,,,0.01,Wunderground v.1.15,2013-03-25 03:03:00,
2013-03-24 23:08:00,37.1,27.9,29.74,SSE,150,0.0,0.0,69,0.00,,,0.01,Wunderground v.1.15,2013-03-25 03:08:00,
2013-03-24 23:13:00,37.1,27.9,29.74,SSE,152,0.0,0.0,69,0.00,,,0.01,Wunderground v.1.15,2013-03-25 03:13:00,
2013-03-24 23:18:00,37.0,27.8,29.74,SSE,152,0.0,0.0,69,0.00,,,0.01,Wunderground v.1.15,2013-03-25 03:18:00,
2013-03-24 23:23:00,37.0,27.8,29.74,SSE,152,0.0,0.0,69,0.00,,,0.01,Wunderground v.1.15,2013-03-25 03:23:00,
2013-03-24 23:28:00,37.0,28.1,29.74,SSE,150,0.0,0.0,70,0.00,,,0.01,Wunderground v.1.15,2013-03-25 03:28:00,
2013-03-24 23:33:00,37.0,28.1,29.74,SSE,152,0.0,2.0,70,0.00,,,0.01,Wunderground v.1.15,2013-03-25 03:33:00,
2013-03-24 23:38:00,37.0,28.1,29.74,SSE,151,1.0,2.0,70,0.00,,,0.01,Wunderground v.1.15,2013-03-25 03:38:00,
2013-03-24 23:43:00,37.0,28.1,29.74,SSW,195,1.0,2.0,70,0.00,,,0.01,Wunderground v.1.15,2013-03-25 03:43:00,
2013-03-24 23:48:00,37.0,28.1,29.74,SSW,195,0.0,2.0,70,0.00,,,0.01,Wunderground v.1.15,2013-03-25 03:48:00,
2013-03-24 23:53:00,37.0,28.1,29.74,SSW,195,0.0,2.0,70,0.00,,,0.01,Wunderground v.1.15,2013-03-25 03:53:00,
2013-03-24 23:58:00,37.0,28.1,29.74,SSW,195,0.0,2.0,70,0.00,,,0.01,Wunderground v.1.15,2013-03-25 03:58:00,